GW0140 Weather Reports


time (UTC)temp
C
wind
direction
speed
KPH
gust
KPH
rain 1hr
cm
rain 24hr
cm
rain mn
cm
humidity
%
barometer
mb
20260507085939 10 103 6.4 14.5 0.00 0.10 0.00 76 1016.5
20260507084956 10 91 3.2 8.0 0.00 0.10 0.00 77 1016.5
20260507083959 10 84 4.8 14.5 0.00 0.10 0.00 77 1016.5
20260507083004 10 96 6.4 14.5 0.00 0.10 0.00 77 1016.4
20260507075644 10 108 8.0 12.9 0.00 0.10 0.00 78 1016.4
20260507073432 10 106 8.0 14.5 0.00 0.10 0.00 79 1016.2
20260507072408 10 95 8.0 14.5 0.00 0.10 0.00 80 1016.2
20260507071337 9 72 9.7 14.5 0.00 0.10 0.00 81 1016.1
20260507070308 9 61 9.7 14.5 0.00 0.10 0.00 82 1016.1
20260507065308 9 69 4.8 12.9 0.00 0.10 0.00 83 1016.1
20260507063213 8 82 4.8 8.0 0.00 0.10 0.00 85 1016.0
20260507062234 8 85 3.2 6.4 0.00 0.10 0.00 85 1016.0
20260507061210 8 85 1.6 4.8 0.00 0.10 0.00 86 1016.0
20260507060202 8 85 4.8 8.0 0.00 0.10 0.00 86 1015.9
20260507055213 7 85 3.2 8.0 0.00 0.10 0.00 87 1015.8
20260507054227 7 69 3.2 6.4 0.00 0.10 0.00 87 1015.8
20260507052036 7 69 3.2 8.0 0.00 0.10 0.00 88 1015.8
20260507051026 7 63 1.6 6.4 0.00 0.10 0.00 88 1015.7
20260507050007 7 151 1.6 4.8 0.00 0.10 0.00 88 1015.6
20260507045017 7 151 1.6 4.8 0.00 0.10 0.00 89 1015.5
20260507044020 7 153 0.0 3.2 0.00 0.10 0.00 89 1015.4
20260507043031 7 153 0.0 3.2 0.00 0.10 0.00 89 1015.4
20260507042019 7 153 0.0 3.2 0.00 0.10 0.00 89 1015.4
20260507040954 7 321 0.0 0.0 0.00 0.10 0.00 89 1015.3
20260507040016 7 321 0.0 3.2 0.00 0.10 0.00 89 1015.3
20260507035016 7 321 0.0 3.2 0.00 0.10 0.00 89 1015.3
20260507032802 7 317 0.0 4.8 0.00 0.10 0.00 89 1015.2
20260507031756 7 305 1.6 3.2 0.00 0.10 0.00 89 1015.2
20260507030811 7 305 0.0 3.2 0.00 0.10 0.00 89 1015.3
20260507025812 7 305 0.0 3.2 0.00 0.10 0.00 89 1015.2
20260507023653 7 305 0.0 3.2 0.00 0.10 0.00 89 1015.1
20260507022707 7 305 0.0 1.6 0.00 0.10 0.00 89 1015.0
20260507021726 7 305 0.0 3.2 0.00 0.10 0.00 89 1015.0
20260507020720 7 305 1.6 6.4 0.00 0.10 0.00 89 1014.9
20260507015706 7 305 3.2 6.4 0.00 0.10 0.00 89 1014.9
20260507014710 7 342 1.6 3.2 0.00 0.10 0.00 88 1014.9
20260507013637 7 5 1.6 6.4 0.00 0.10 0.00 88 1014.8
20260507012622 8 11 3.2 6.4 0.00 0.10 0.00 88 1014.8
20260507011634 8 19 3.2 4.8 0.00 0.10 0.00 88 1014.8
20260507010659 8 32 3.2 4.8 0.00 0.10 0.00 87 1014.8
20260507005702 8 32 3.2 4.8 0.00 0.10 0.00 88 1014.7
20260507004720 8 32 3.2 6.4 0.00 0.10 0.00 87 1014.7
20260507003702 8 32 3.2 6.4 0.00 0.10 0.00 87 1014.7
20260507002641 8 34 3.2 6.4 0.00 0.10 0.00 87 1014.7
20260507001628 8 25 3.2 6.4 0.00 0.10 0.00 87 1014.8
20260507000625 8 24 3.2 6.4 0.00 0.10 0.00 87 1014.8
20260506234519 8 32 3.2 9.7 0.00 0.10 0.00 86 1014.9
20260506233507 8 43 6.4 9.7 0.00 0.10 0.00 86 1014.7
20260506231327 8 55 6.4 11.3 0.00 0.10 0.00 86 1014.7
20260506230326 8 65 8.0 11.3 0.00 0.10 0.00 86 1014.6
20260506225316 8 65 6.4 9.7 0.00 0.10 0.10 86 1014.5
20260506224306 8 57 6.4 8.0 0.00 0.10 0.10 87 1014.7
20260506223258 8 57 3.2 6.4 0.00 0.10 0.10 86 1014.7
20260506222306 8 57 4.8 8.0 0.00 0.10 0.10 86 1014.5
20260506221232 8 58 6.4 9.7 0.00 0.10 0.10 86 1014.4
20260506220208 8 58 6.4 8.0 0.00 0.10 0.10 86 1014.4
20260506214052 9 67 8.0 12.9 0.00 0.10 0.10 85 1014.4
20260506213058 9 72 8.0 14.5 0.00 0.10 0.10 85 1014.3
20260506211000 9 67 11.3 14.5 0.00 0.10 0.10 84 1014.3
20260506205951 9 76 9.7 14.5 0.00 0.10 0.10 84 1014.3
20260506205010 9 78 9.7 16.1 0.00 0.10 0.10 84 1014.2
20260506204034 10 85 8.0 16.1 0.00 0.10 0.10 84 1014.0
20260506201842 10 80 12.9 17.7 0.00 0.10 0.10 84 1014.0
20260506200854 9 74 14.5 17.7 0.00 0.10 0.10 85 1013.9
20260506195850 9 84 12.9 16.1 0.15 0.10 0.10 87 1013.8
20260506194905 9 88 6.4 14.5 0.23 0.08 0.10 89 1013.8
20260506193855 9 53 4.8 8.0 0.00 0.05 0.05 89 1013.6
20260506192829 9 45 3.2 8.0 0.00 0.05 0.05 89 1013.6
20260506191820 9 24 3.2 4.8 0.00 0.05 0.05 88 1013.5
20260506190803 10 34 3.2 4.8 0.00 0.05 0.05 88 1013.4
20260506184652 10 59 8.0 12.9 0.00 0.03 0.03 87 1013.3
20260506183708 10 69 6.4 12.9 0.00 0.03 0.03 88 1013.1
20260506182646 10 64 4.8 8.0 0.00 0.03 0.03 88 1013.0
20260506181629 10 48 4.8 8.0 0.00 0.03 0.03 88 1012.9
20260506180627 10 49 4.8 8.0 0.00 0.03 0.03 88 1012.7
20260506175610 10 51 4.8 8.0 0.00 0.03 0.03 88 1012.7
20260506174609 9 51 4.8 8.0 0.00 0.03 0.03 88 1012.7
20260506173610 9 49 6.4 12.9 0.00 0.00 0.00 88 1012.7
20260506172542 9 50 9.7 17.7 0.00 0.00 0.00 88 1012.8
20260506170418 10 79 16.1 20.9 0.00 0.00 0.00 87 1012.6
20260506165406 10 61 17.7 22.5 0.00 0.00 0.00 84 1012.6
20260506164339 11 47 11.3 22.5 0.00 0.00 0.00 80 1012.6
20260506163304 11 5 11.3 17.7 0.00 0.00 0.00 79 1012.5
20260506162246 11 355 9.7 14.5 0.00 0.00 0.00 80 1012.4
20260506161255 11 5 6.4 12.9 0.00 0.00 0.00 79 1012.3
20260506160307 11 5 6.4 12.9 0.00 0.00 0.00 79 1012.4
20260506152954 10 355 4.8 8.0 0.00 0.00 0.00 83 1012.4
20260506151920 10 5 6.4 14.5 0.00 0.00 0.00 81 1012.5
20260506150846 10 32 6.4 11.3 0.00 0.00 0.00 80 1012.5
20260506145835 11 5 8.0 16.1 0.00 0.00 0.00 80 1012.3
20260506144821 11 34 9.7 16.1 0.00 0.00 0.00 80 1012.4
20260506143758 11 34 9.7 16.1 0.00 0.00 0.00 81 1012.3
20260506142732 10 19 14.5 22.5 0.00 0.00 0.00 80 1012.3
20260506141726 11 40 14.5 22.5 0.00 0.00 0.00 80 1012.2
20260506140720 11 49 12.9 20.9 0.00 0.00 0.00 80 1012.2
20260506135712 11 26 14.5 19.3 0.00 0.00 0.00 81 1012.2
20260506134729 11 12 14.5 20.9 0.00 0.00 0.00 79 1012.3
20260506133741 11 39 14.5 20.9 0.00 0.00 0.00 78 1012.2
20260506132800 10 44 9.7 16.1 0.00 0.00 0.00 81 1012.2
20260506131752 10 30 8.0 14.5 0.00 0.00 0.00 83 1012.2
20260506130801 10 26 9.7 17.7 0.00 0.00 0.00 83 1012.2
20260506125817 10 29 11.3 22.5 0.00 0.00 0.00 83 1012.2
20260506124834 10 44 16.1 27.4 0.00 0.00 0.00 82 1012.1
20260506123846 10 44 20.9 27.4 0.00 0.00 0.00 80 1012.1
20260506122854 10 42 20.9 30.6 0.00 0.00 0.00 80 1012.1
20260506121912 11 37 22.5 30.6 0.00 0.00 0.00 78 1012.2
20260506115821 11 13 19.3 30.6 0.00 0.00 0.00 75 1011.9
20260506114827 11 355 17.7 29.0 0.00 0.00 0.00 76 1011.8
20260506113758 11 5 16.1 30.6 0.00 0.00 0.00 74 1011.7
20260506112753 11 20 22.5 30.6 0.00 0.00 0.00 74 1011.8
20260506111735 11 350 19.3 32.2 0.00 0.00 0.00 74 1011.6
20260506110711 11 347 20.9 32.2 0.00 0.00 0.00 75 1011.7
20260506105654 11 12 20.9 27.4 0.00 0.00 0.00 75 1011.7
20260506104708 11 0 17.7 27.4 0.00 0.00 0.00 75 1011.7
20260506102543 11 355 16.1 24.1 0.00 0.00 0.00 78 1011.7
20260506101607 11 351 17.7 24.1 0.00 0.00 0.00 78 1011.7
20260506100616 11 32 17.7 25.7 0.00 0.00 0.00 77 1011.8
20260506095544 11 355 19.3 25.7 0.00 0.00 0.00 77 1011.8
20260506094518 11 10 17.7 25.7 0.00 0.00 0.00 80 1011.7
20260506093502 11 0 19.3 27.4 0.00 0.00 0.00 79 1011.8
20260506092513 11 25 17.7 27.4 0.00 0.00 0.00 78 1011.8
20260506091512 10 13 16.1 24.1 0.00 0.00 0.00 78 1011.7
20260506090525 10 5 17.7 27.4 0.00 0.00 0.00 80 1011.6